WA2GUG Weather Reports


time (UTC)temp
C
wind
direction
speed
KPH
gust
KPH
rain 1hr
cm
rain 24hr
cm
rain mn
cm
humidity
%
barometer
mb
20260831225658 21 112 0.0 0.0 0.00 0.00 0.00 99 1012.0
20260831225158 21 112 0.0 0.0 0.00 0.00 0.00 99 1012.0
20260831224658 21 112 0.0 0.0 0.00 0.00 0.00 99 1012.0
20260831224158 21 112 0.0 0.0 0.00 0.00 0.00 99 1012.0
20260831223658 21 90 0.0 0.0 0.00 0.00 0.00 99 1012.0
20260831223158 21 136 0.0 0.0 0.00 0.00 0.00 99 1012.0
20260831222658 21 157 0.0 0.0 0.00 0.00 0.00 99 1012.0
20260831222158 21 155 0.0 0.0 0.00 0.00 0.00 99 1012.1
20260831221658 21 180 0.0 0.0 0.00 0.00 0.00 99 1012.2
20260831221158 22 180 0.0 0.0 0.00 0.00 0.00 99 1012.1
20260831220658 22 180 0.0 0.0 0.00 0.00 0.00 99 1012.0
20260831220158 22 180 0.0 0.0 0.00 0.00 0.00 99 1012.1
20260831215658 22 171 0.0 0.0 0.00 0.00 0.00 99 1012.1
20260831215158 22 176 0.0 0.0 0.00 0.00 0.00 99 1012.1
20260831214658 22 172 0.0 0.0 0.00 0.00 0.00 99 1012.2
20260831214158 22 152 0.0 0.0 0.00 0.00 0.00 99 1012.2
20260831213658 22 148 0.0 0.0 0.00 0.00 0.00 99 1012.1
20260831213158 23 180 0.0 0.0 0.00 0.00 0.00 99 1012.2
20260831212658 23 165 0.0 0.0 0.00 0.00 0.00 99 1012.2
20260831212158 23 133 0.0 0.0 0.00 0.00 0.00 99 1012.2
20260831211658 23 95 0.0 0.0 0.00 0.00 0.00 99 1012.2
20260831211158 23 288 0.0 0.0 0.00 0.00 0.00 99 1012.1
20260831210658 23 202 0.0 0.0 0.00 0.00 0.00 99 1012.0
20260831210158 23 190 0.0 0.0 0.00 0.00 0.00 99 1012.1
20260831205658 23 215 0.0 0.0 0.00 0.00 0.00 99 1012.2
20260831205158 23 219 0.0 0.0 0.00 0.00 0.00 99 1012.2
20260831204658 23 245 0.0 0.0 0.00 0.00 0.00 99 1012.1
20260831204158 23 241 0.0 0.0 0.00 0.00 0.00 99 1012.1
20260831203658 24 247 0.0 0.0 0.00 0.00 0.00 99 1012.2
20260831203158 25 213 0.0 0.0 0.00 0.00 0.00 99 1013.0
20260831202658 25 180 0.0 0.0 0.00 0.00 0.00 99 1012.2
20260831202158 25 176 0.0 0.0 0.00 0.00 0.00 99 1012.2
20260831201158 26 255 0.0 0.0 0.00 0.00 0.00 99 1012.2
20260831200658 27 270 0.0 0.0 0.00 0.00 0.00 99 1012.2
20260831200158 27 256 0.0 0.0 0.00 0.00 0.00 99 1013.0
20260831195658 27 272 0.0 0.0 0.00 0.00 0.00 99 1012.2
20260831195158 27 268 0.0 0.0 0.00 0.00 0.00 99 1012.2
20260831194658 27 272 0.0 0.0 0.00 0.00 0.00 99 1013.0
20260831194158 27 278 0.0 0.0 0.00 0.00 0.00 99 1012.2
20260831193658 27 264 0.0 0.0 0.00 0.00 0.00 99 1013.0
20260831193158 27 251 0.0 1.6 0.00 0.00 0.00 99 1013.0
20260831192658 27 243 0.0 1.6 0.00 0.00 0.00 99 1012.2
20260831192158 27 254 0.0 0.0 0.00 0.00 0.00 99 1013.0
20260831191658 26 240 0.0 1.6 0.00 0.00 0.00 99 1012.2
20260831191158 27 107 0.0 3.2 0.00 0.00 0.00 99 1013.0
20260831190658 27 172 0.0 3.2 0.00 0.00 0.00 99 1013.0
20260831190158 27 215 0.0 1.6 0.00 0.00 0.00 99 1013.0
20260831185658 27 255 0.0 0.0 0.00 0.00 0.00 99 1012.2
20260831185158 27 194 0.0 0.0 0.00 0.00 0.00 99 1013.0
20260831184658 27 212 0.0 0.0 0.00 0.00 0.00 99 1013.0
20260831184158 27 276 0.0 3.2 0.00 0.00 0.00 99 1013.0
20260831183658 28 90 0.0 3.2 0.00 0.00 0.00 99 1013.0
20260831183158 28 237 0.0 0.0 0.00 0.00 0.00 99 1013.0
20260831182658 28 258 0.0 0.0 0.00 0.00 0.00 99 1013.0
20260831182157 28 264 0.0 3.2 0.00 0.00 0.00 99 1013.0
20260831181658 28 275 0.0 3.2 0.00 0.00 0.00 99 1013.0
20260831181157 28 275 0.0 0.0 0.00 0.00 0.00 99 1013.0
20260831180657 29 230 0.0 0.0 0.00 0.00 0.00 99 1013.0
20260831180158 30 268 0.0 0.0 0.00 0.00 0.00 99 1013.0
20260831175657 30 239 0.0 3.2 0.00 0.00 0.00 99 1013.0
20260831175157 30 229 0.0 4.8 0.00 0.00 0.00 99 1013.0
20260831174657 30 272 0.0 4.8 0.00 0.00 0.00 99 1013.0
20260831174157 30 272 0.0 3.2 0.00 0.00 0.00 99 1013.0
20260831173657 30 132 0.0 3.2 0.00 0.00 0.00 99 1013.0
20260831173157 30 232 0.0 3.2 0.00 0.00 0.00 99 1013.0
20260831172657 30 265 0.0 3.2 0.00 0.00 0.00 99 1013.0
20260831172157 30 274 0.0 3.2 0.00 0.00 0.00 99 1013.0
20260831171658 28 275 0.0 0.0 0.00 0.00 0.00 99 1013.1
20260831171157 28 270 0.0 3.2 0.00 0.00 0.00 99 1013.2
20260831170657 27 266 0.0 3.2 0.00 0.00 0.00 99 1013.2
20260831170157 27 129 0.0 0.0 0.00 0.00 0.00 99 1014.0
20260831165657 28 275 0.0 0.0 0.00 0.00 0.00 99 1014.0
20260831165157 28 288 0.0 0.0 0.00 0.00 0.00 99 1014.0
20260831164657 28 235 0.0 0.0 0.00 0.00 0.00 99 1014.0
20260831164157 29 145 0.0 4.8 0.00 0.00 0.00 99 1014.0
20260831163657 30 186 1.6 4.8 0.00 0.00 0.00 99 1014.0
20260831163157 30 305 1.6 4.8 0.00 0.00 0.00 99 1014.0
20260831162657 30 231 0.0 4.8 0.00 0.00 0.00 99 1014.0
20260831162157 30 293 0.0 3.2 0.00 0.00 0.00 99 1014.0
20260831161658 28 268 0.0 3.2 0.00 0.00 0.00 99 1014.0
20260831161157 28 264 0.0 0.0 0.00 0.00 0.00 99 1014.0
20260831160657 28 259 0.0 0.0 0.00 0.00 0.00 99 1014.0
20260831160157 28 184 0.0 3.2 0.00 0.00 0.00 99 1014.0
20260831155657 28 284 0.0 3.2 0.00 0.00 0.00 99 1014.0
20260831154657 28 284 0.0 0.0 0.00 0.00 0.00 99 1014.0
20260831154157 29 287 0.0 1.6 0.00 0.00 0.00 99 1014.0
20260831153657 30 172 0.0 3.2 0.00 0.00 0.00 99 1014.0
20260831153157 30 234 0.0 3.2 0.00 0.00 0.00 99 1014.0
20260831152657 30 267 0.0 3.2 0.00 0.00 0.00 99 1014.0
20260831152157 30 298 0.0 0.0 0.00 0.00 0.00 99 1014.0
20260831151657 29 273 0.0 1.6 0.00 0.00 0.00 99 1014.0
20260831151157 28 271 0.0 1.6 0.00 0.00 0.00 99 1014.0
20260831150657 28 243 0.0 1.6 0.00 0.00 0.00 99 1014.0
20260831150157 28 235 0.0 1.6 0.00 0.00 0.00 99 1014.0
20260831145657 28 275 0.0 0.0 0.00 0.00 0.00 99 1014.0
20260831145157 29 238 0.0 0.0 0.00 0.00 0.00 99 1014.0
20260831144657 30 216 0.0 0.0 0.00 0.00 0.00 99 1014.0
20260831144157 30 269 0.0 0.0 0.00 0.00 0.00 99 1014.0
20260831143657 28 33 0.0 0.0 0.00 0.00 0.00 99 1014.0
20260831143157 26 4 0.0 0.0 0.00 0.00 0.00 99 1014.0
20260831142657 26 310 0.0 0.0 0.00 0.00 0.00 99 1014.0
20260831142157 26 97 0.0 3.2 0.00 0.00 0.00 99 1014.0
20260831141657 27 298 0.0 3.2 0.00 0.00 0.00 99 1014.0
20260831141157 27 286 0.0 0.0 0.00 0.00 0.00 99 1014.0
20260831140657 28 270 0.0 0.0 0.00 0.00 0.00 99 1014.0
20260831140157 27 270 0.0 0.0 0.00 0.00 0.00 99 1014.0
20260831135657 26 303 0.0 1.6 0.00 0.00 0.00 99 1014.0
20260831135157 25 208 0.0 1.6 0.00 0.00 0.00 99 1014.0
20260831134657 25 47 0.0 1.6 0.00 0.00 0.00 99 1014.0
20260831134157 25 171 0.0 3.2 0.00 0.00 0.00 99 1014.0
20260831133657 25 248 0.0 3.2 0.00 0.00 0.00 99 1014.0
20260831133157 25 280 0.0 0.0 0.00 0.00 0.00 99 1014.0
20260831132657 25 251 0.0 0.0 0.00 0.00 0.00 99 1014.0
20260831132157 25 266 0.0 0.0 0.00 0.00 0.00 99 1014.0
20260831131657 25 287 0.0 0.0 0.00 0.00 0.00 99 1014.0
20260831131157 26 288 0.0 0.0 0.00 0.00 0.00 99 1014.0
20260831130657 27 235 0.0 0.0 0.00 0.00 0.00 99 1014.0
20260831130157 26 21 0.0 0.0 0.00 0.00 0.00 99 1014.0
20260831125657 25 76 0.0 0.0 0.00 0.00 0.00 99 1014.0
20260831125157 22 156 0.0 0.0 0.00 0.00 0.00 99 1014.0
20260831124157 21 306 0.0 0.0 0.00 0.00 0.00 99 1014.0
20260831123657 21 281 0.0 0.0 0.00 0.00 0.00 99 1014.0
20260831123157 21 287 0.0 0.0 0.00 0.00 0.00 99 1014.0
20260831122657 21 310 0.0 0.0 0.00 0.00 0.00 99 1014.0
20260831122157 20 274 0.0 0.0 0.00 0.00 0.00 99 1014.0
20260831121657 20 270 0.0 0.0 0.00 0.00 0.00 99 1014.0
20260831121157 20 45 0.0 0.0 0.00 0.00 0.00 99 1014.0
20260831120657 19 268 0.0 0.0 0.00 0.00 0.00 99 1014.0
20260831120157 19 190 0.0 0.0 0.00 0.00 0.00 99 1014.0
20260831115657 18 286 0.0 0.0 0.00 0.00 0.00 99 1014.0
20260831115157 18 148 0.0 0.0 0.00 0.00 0.00 99 1014.0
20260831114657 18 291 0.0 0.0 0.00 0.00 0.00 99 1014.0
20260831114157 17 289 0.0 0.0 0.00 0.00 0.00 99 1014.0
20260831113657 17 301 0.0 0.0 0.00 0.00 0.00 99 1013.2
20260831113157 17 267 0.0 0.0 0.00 0.00 0.00 99 1013.2
20260831112657 16 250 0.0 0.0 0.00 0.00 0.00 99 1014.0
20260831112157 16 159 0.0 0.0 0.00 0.00 0.00 99 1013.2
20260831111657 16 159 0.0 0.0 0.00 0.00 0.00 99 1014.0
20260831111157 16 259 0.0 0.0 0.00 0.00 0.00 99 1013.2
20260831110657 16 224 0.0 0.0 0.00 0.00 0.00 99 1014.0
20260831110157 16 161 0.0 0.0 0.00 0.00 0.00 99 1013.2
20260831105657 15 135 0.0 0.0 0.00 0.00 0.00 99 1013.2
20260831105157 15 57 0.0 0.0 0.00 0.00 0.00 99 1013.2
20260831104657 15 35 0.0 0.0 0.00 0.00 0.00 99 1014.0
20260831104157 15 87 0.0 0.0 0.00 0.00 0.00 99 1013.1
20260831103657 15 135 0.0 0.0 0.00 0.00 0.00 99 1013.1
20260831103157 15 135 0.0 0.0 0.00 0.00 0.00 99 1013.0
20260831102657 15 135 0.0 0.0 0.00 0.00 0.00 99 1013.0
20260831102157 15 123 0.0 0.0 0.00 0.00 0.00 99 1013.0
20260831101657 15 114 0.0 0.0 0.00 0.00 0.00 99 1013.0
20260831101157 15 135 0.0 0.0 0.00 0.00 0.00 99 1013.0
20260831100657 15 132 0.0 0.0 0.00 0.00 0.00 99 1013.0
20260831100157 15 121 0.0 0.0 0.00 0.00 0.00 99 1013.0
20260831095657 15 135 0.0 0.0 0.00 0.00 0.00 99 1013.0
20260831095157 15 31 0.0 0.0 0.00 0.00 0.00 99 1013.0
20260831094657 15 352 0.0 0.0 0.00 0.00 0.00 99 1013.0
20260831094157 15 156 0.0 0.0 0.00 0.00 0.00 99 1013.0
20260831093657 15 159 0.0 0.0 0.00 0.00 0.00 99 1013.0
20260831093157 15 99 0.0 0.0 0.00 0.00 0.00 99 1013.0
20260831092657 15 68 0.0 0.0 0.00 0.00 0.00 99 1013.0
20260831092157 15 123 0.0 0.0 0.00 0.00 0.00 99 1013.0
20260831091657 15 135 0.0 0.0 0.00 0.00 0.00 99 1013.0
20260831091157 15 135 0.0 0.0 0.00 0.00 0.00 99 1013.0
20260831090657 15 135 0.0 0.0 0.00 0.00 0.00 99 1013.0
20260831090157 15 135 0.0 0.0 0.00 0.00 0.00 99 1013.0
20260831085657 16 84 0.0 0.0 0.00 0.00 0.00 99 1013.0
20260831085157 16 178 0.0 0.0 0.00 0.00 0.00 99 1013.0
20260831084657 16 202 0.0 0.0 0.00 0.00 0.00 99 1013.0
20260831084157 16 202 0.0 0.0 0.00 0.00 0.00 99 1013.0
20260831083657 16 202 0.0 0.0 0.00 0.00 0.00 99 1013.0
20260831083157 16 187 0.0 0.0 0.00 0.00 0.00 99 1013.0
20260831082657 16 139 0.0 0.0 0.00 0.00 0.00 99 1013.0
20260831082157 16 132 0.0 0.0 0.00 0.00 0.00 99 1013.0
20260831081657 16 130 0.0 0.0 0.00 0.00 0.00 99 1013.0
20260831081157 16 33 0.0 0.0 0.00 0.00 0.00 99 1013.0
20260831080657 16 43 0.0 0.0 0.00 0.00 0.00 99 1013.0
20260831080157 16 75 0.0 0.0 0.00 0.00 0.00 99 1013.0
20260831075657 16 62 0.0 0.0 0.00 0.00 0.00 99 1013.0
20260831075157 16 135 0.0 0.0 0.00 0.00 0.00 99 1013.0
20260831074657 16 135 0.0 0.0 0.00 0.00 0.00 99 1013.0
20260831074157 16 135 0.0 0.0 0.00 0.00 0.00 99 1013.0
20260831073657 16 135 0.0 0.0 0.00 0.00 0.00 99 1013.0
20260831073157 17 130 0.0 0.0 0.00 0.00 0.00 99 1013.0
20260831072657 17 129 0.0 0.0 0.00 0.00 0.00 99 1013.0
20260831072157 17 122 0.0 0.0 0.00 0.00 0.00 99 1013.0
20260831071657 17 115 0.0 0.0 0.00 0.00 0.00 99 1013.0
20260831071157 17 120 0.0 0.0 0.00 0.00 0.00 99 1013.0
20260831070657 17 135 0.0 0.0 0.00 0.00 0.00 99 1013.0
20260831070157 17 136 0.0 0.0 0.00 0.00 0.00 99 1013.0
20260831065657 17 270 0.0 0.0 0.00 0.00 0.00 99 1013.0
20260831065157 17 248 0.0 0.0 0.00 0.00 0.00 99 1013.0
20260831064657 17 247 0.0 0.0 0.00 0.00 0.00 99 1013.0
20260831064157 17 247 0.0 0.0 0.00 0.00 0.00 99 1013.0
20260831063657 17 247 0.0 0.0 0.00 0.00 0.00 99 1013.0
20260831063157 17 220 0.0 0.0 0.00 0.00 0.00 99 1013.0
20260831062657 17 180 0.0 0.0 0.00 0.00 0.00 99 1013.0
20260831062157 17 180 0.0 0.0 0.00 0.00 0.00 99 1013.0
20260831061657 17 195 0.0 0.0 0.00 0.00 0.00 99 1013.0
20260831061157 17 270 0.0 0.0 0.00 0.00 0.00 99 1013.0
20260831060657 17 270 0.0 0.0 0.00 0.00 0.00 99 1013.0
20260831060157 17 270 0.0 0.0 0.00 0.00 0.00 99 1013.0
20260831055657 17 247 0.0 0.0 0.00 0.00 0.00 99 1013.0
20260831055157 17 192 0.0 0.0 0.00 0.00 0.00 99 1013.0
20260831054657 17 319 0.0 0.0 0.00 0.00 0.00 99 1013.0
20260831054157 17 123 0.0 0.0 0.00 0.00 0.00 99 1013.0
20260831053657 17 116 0.0 0.0 0.00 0.00 0.00 99 1013.0
20260831053157 17 83 0.0 0.0 0.00 0.00 0.00 99 1013.0
20260831052657 17 250 0.0 0.0 0.00 0.00 0.00 99 1013.0
20260831052157 17 180 0.0 0.0 0.00 0.00 0.00 99 1013.0
20260831051657 17 87 0.0 4.8 0.00 0.00 0.00 99 1013.0
20260831051157 17 185 0.0 4.8 0.00 0.00 0.00 99 1013.0
20260831050657 17 130 0.0 4.8 0.00 0.00 0.00 99 1013.0
20260831050156 17 140 1.6 4.8 0.00 0.00 0.00 99 1013.0
20260831045656 17 133 1.6 4.8 0.00 0.00 0.00 99 1013.0
20260831045156 17 138 0.0 4.8 0.00 0.00 0.00 99 1013.0
20260831044656 17 139 0.0 4.8 0.00 0.00 0.00 99 1013.0
20260831044156 17 151 0.0 0.0 0.00 0.00 0.00 99 1013.0
20260831043656 17 163 0.0 3.2 0.00 0.00 0.00 99 1012.2
20260831043157 17 135 0.0 3.2 0.00 0.00 0.00 99 1013.0
20260831042656 17 183 0.0 0.0 0.00 0.00 0.00 99 1012.2
20260831042156 17 169 0.0 0.0 0.00 0.00 0.00 99 1013.0
20260831041657 17 148 0.0 0.0 0.00 0.00 0.00 99 1012.2
20260831041156 17 137 0.0 0.0 0.00 0.00 0.00 99 1013.0
20260831040656 17 132 0.0 0.0 0.00 0.00 0.00 99 1012.2
20260831040156 17 144 0.0 3.2 0.00 0.00 0.00 99 1013.0
20260831035656 17 136 0.0 3.2 0.00 0.00 0.00 99 1013.0
20260831035156 17 130 0.0 3.2 0.00 0.00 0.00 99 1013.0
20260831034656 18 89 0.0 3.2 0.00 0.00 0.00 99 1013.0
20260831034156 18 82 0.0 4.8 0.00 0.00 0.00 99 1013.0
20260831033656 18 92 1.6 4.8 0.00 0.00 0.00 99 1013.0
20260831033156 18 90 1.6 4.8 0.00 0.00 0.00 99 1013.0
20260831032656 18 98 0.0 6.4 0.00 0.00 0.00 99 1013.0
20260831032156 18 12 1.6 6.4 0.00 0.00 0.00 99 1013.0
20260831031657 18 52 0.0 4.8 0.00 0.00 0.00 99 1013.0
20260831031156 18 81 0.0 0.0 0.00 0.00 0.00 99 1013.0
20260831030656 18 54 0.0 0.0 0.00 0.00 0.00 99 1013.0
20260831030156 18 86 0.0 0.0 0.00 0.00 0.00 99 1013.0
20260831025656 18 94 0.0 0.0 0.00 0.00 0.00 99 1013.0
20260831025156 18 158 0.0 6.4 0.00 0.00 0.00 99 1013.0
20260831024656 18 160 1.6 6.4 0.00 0.00 0.00 99 1012.2
20260831024156 18 43 0.0 4.8 0.00 0.00 0.00 99 1013.0
20260831023656 18 83 0.0 4.8 0.00 0.00 0.00 99 1012.2
20260831023156 18 71 0.0 3.2 0.00 0.00 0.00 99 1013.0
20260831022656 19 47 0.0 4.8 0.00 0.00 0.00 99 1013.0
20260831022156 19 97 1.6 4.8 0.00 0.00 0.00 99 1013.0
20260831021656 19 46 0.0 0.0 0.00 0.00 0.00 99 1013.0
20260831021156 19 153 0.0 4.8 0.00 0.00 0.00 99 1013.0
20260831020656 19 95 0.0 4.8 0.00 0.00 0.00 99 1013.0
20260831020156 19 136 0.0 4.8 0.00 0.00 0.00 99 1013.0
20260831015656 19 112 0.0 3.2 0.00 0.00 0.00 99 1013.0
20260831015156 19 138 0.0 3.2 0.00 0.00 0.00 99 1013.0
20260831014656 19 168 0.0 1.6 0.00 0.00 0.00 99 1013.0
20260831014156 19 127 0.0 1.6 0.00 0.00 0.00 99 1013.0
20260831013656 19 10 0.0 6.4 0.00 0.00 0.00 99 1013.0
20260831013156 19 150 0.0 6.4 0.00 0.00 0.00 99 1013.0
20260831012656 19 49 0.0 0.0 0.00 0.00 0.00 99 1013.0
20260831012156 19 161 0.0 0.0 0.00 0.00 0.00 99 1013.0
20260831011656 19 76 0.0 1.6 0.00 0.00 0.00 99 1013.0
20260831011156 19 137 0.0 6.4 0.00 0.00 0.00 99 1013.0
20260831010656 19 117 0.0 6.4 0.00 0.00 0.00 99 1013.0
20260831010156 19 345 0.0 0.0 0.00 0.00 0.00 99 1013.0
20260831005656 19 16 0.0 0.0 0.00 0.00 0.00 99 1012.2
20260831005156 19 87 0.0 0.0 0.00 0.00 0.00 99 1013.0
20260831004656 19 137 0.0 0.0 0.00 0.00 0.00 99 1013.0
20260831004156 19 135 0.0 0.0 0.00 0.00 0.00 99 1013.0
20260831003656 19 119 0.0 0.0 0.00 0.00 0.00 99 1013.0
20260831003156 19 117 0.0 3.2 0.00 0.00 0.00 99 1013.0
20260831002656 19 94 0.0 3.2 0.00 0.00 0.00 99 1012.1
20260831002156 19 143 0.0 1.6 0.00 0.00 0.00 99 1012.0
20260831001656 19 128 0.0 0.0 0.00 0.00 0.00 99 1012.0
20260831001156 18 122 0.0 0.0 0.00 0.00 0.00 99 1012.0
20260831000656 18 148 0.0 0.0 0.00 0.00 0.00 99 1012.0
20260831000156 18 139 0.0 0.0 0.00 0.00 0.00 99 1012.0
20260830235656 18 85 0.0 0.0 0.00 0.00 0.00 99 1012.0
20260830235156 19 107 0.0 0.0 0.00 0.00 0.00 99 1012.0
20260830234656 19 19 0.0 0.0 0.00 0.00 0.00 99 1012.0
20260830234156 19 52 0.0 0.0 0.00 0.00 0.00 99 1012.0
20260830233656 19 147 0.0 0.0 0.00 0.00 0.00 99 1012.0
20260830233156 19 135 0.0 0.0 0.00 0.00 0.00 99 1012.0
20260830232656 19 183 0.0 0.0 0.00 0.00 0.00 99 1012.0
20260830232156 19 128 0.0 0.0 0.00 0.00 0.00 99 1012.0
20260830231656 20 139 0.0 0.0 0.00 0.00 0.00 99 1012.0
20260830231156 20 159 0.0 1.6 0.00 0.00 0.00 99 1012.0
20260830230656 20 11 0.0 1.6 0.00 0.00 0.00 99 1012.0
20260830230156 20 152 0.0 3.2 0.00 0.00 0.00 99 1012.0